Regional Weather Roundup
Issued by NWS

Home | Current Version | Previous Version | Text Only | Print | Product List | Glossary On
Versions: 1 2 3 4 5 6 7 8 9 10 11 12 13 14 15 16 17 18 19 20 21 22 23 24 25 26 27 28 29 30 31 32 33 34 35 36 37 38 39 40 41 42 43 44 45 46 47 48 49 50
000
ASUS43 KDTX 250910
RWRMI
MICHIGAN HOURLY REGIONAL WEATHER ROUNDUP
NATIONAL WEATHER SERVICE DETROIT/PONTIAC MI
500 AM EDT MON MAY 25 2015

NOTE: "FAIR" INDICATES FEW OR NO CLOUDS BELOW 12,000 FEET WITH NO
SIGNIFICANT WEATHER AND/OR OBSTRUCTION TO VISIBILITY.

MIZ047>049-052>055-059>063-066>070-074>076-081>083-251000-
SOUTHEAST LOWER MICHIGAN

CITY           SKY/WX    TMP DP  RH WIND       PRES   REMARKS
ADRIAN         CLEAR     66  52  60 S9        30.01F
ALMA           MOCLDY    65  56  72 S6        29.94F
ANN ARBOR      CLEAR     64  52  64 S3        30.01F
BAD AXE        MOCLDY    58  48  68 SE6       29.99F
CARO           PTCLDY    60  52  76 SE3       29.97S
DETROIT CITY   PTCLDY    67  52  58 S7        30.02F
DETROIT        PTCLDY    66  53  63 SE7       30.02F
FLINT          CLEAR     70  53  54 S8        29.98F
GROSSE ILE     PTCLDY    61  55  82 S5        30.01F
HILLSDALE      CLEAR     68  54  60 S7        30.00F
HOWELL         CLEAR     64  52  64 SE6       29.99F

CITY           SKY/WX    TMP DP  RH WIND       PRES   REMARKS
JACKSON        CLEAR     69  55  60 S12       29.98F
LAMBERTVILLE   CLEAR     68  50  52 S6        30.02F
LANSING        CLEAR     66  54  65 S8        29.96F
LAPEER         FAIR      65  51  59 S7        30.00S
MASON          CLEAR     66  54  65 S3        29.97F
MT. CLEMENS    MOCLDY    61  56  82 S9        30.00F
PONTIAC        CLEAR     65  52  62 S6        30.00F
PORT HOPE        N/A     58  50  75 S7        29.98F
PORT HURON     MOCLDY    66  55  68 S7        30.02F
TRI CITIES     MOCLDY    67  54  63 S8        29.95F
MIDLAND        CLOUDY    60  57  88 CALM      29.93F
TROY           PTCLDY    68  52  56 S5        30.03F
SAGINAW HB     CLOUDY    70  54  56 S13       29.94F
$$
MIZ043>046-050>051-056>058-064>065-071>073-077>080-251000-
SOUTHWEST LOWER MICHIGAN

CITY           SKY/WX    TMP DP  RH WIND       PRES   REMARKS
BATTLE CREEK   CLEAR     72  57  59 S15       29.95F
BENTON HARBOR  CLOUDY    70  59  68 S8        29.90S
BIG RAPIDS     MOCLDY    58  55  89 CALM      29.91F
COLDWATER      CLEAR     70  55  57 S7        29.97F
FREMONT        FAIR      61  58  91 CALM      29.88F
HOLLAND        MOCLDY    71  58  63 S12       29.90F
GRAND RAPIDS   PTCLDY    70  57  63 S10       29.92F
IONIA          FAIR      64  55  74 S8        29.93F
KALAMAZOO      PTCLDY    70  57  63 S12       29.94F
LUDINGTON      CLOUDY    61  58  91 CALM      29.88F FOG
MARSHALL       CLEAR     69  56  63 S7        29.96F
MOUNT PLEASANT CLOUDY    58  56  94 CALM      29.93F
MUSKEGON       MOCLDY    74  59  59 S15G28    29.88F
SOUTH HAVEN    MOCLDY    70  58  65 S9        29.90S
$$
MIZ016>042-251000-
NORTHERN LOWER MICHIGAN

CITY           SKY/WX    TMP DP  RH WIND       PRES   REMARKS
ALPENA         LGT RAIN  56  55  97 SE13      29.97F FOG
BEAVER ISLAND  RAIN      54  54  99 E8        29.93S
BELLAIRE       RAIN      60  58  91 CALM      29.91F
CADILLAC       LGT RAIN  58  57  96 E3        29.91F
CHARLEVOIX     LGT RAIN  58  58 100 E8        29.94S
FRANKFORT      LGT RAIN  64  58  81 S5        29.87F
GAYLORD        LGT RAIN  58  58 100 SE10      29.94F FOG
GRAYLING       LGT RAIN  57  55  94 E5        29.94F
HARBOR SPRINGS LGT RAIN  58  57  97 NE12      29.93F
HOUGHTON LAKE  CLOUDY    58  55  90 SE9       29.94F
MANISTEE       CLOUDY    61  57  88 SE5       29.89F
OSCODA         CLOUDY    55  53  92 E7        29.98F
PELLSTON       RAIN      58  57  97 E6        29.95F FOG
ROGERS CITY    HVY RAIN  54  53  98 E8        29.99R
TRAVERSE CITY  RAIN      60  58  92 CALM      29.90F FOG
$$
MIZ007>008-015-251000-
EASTERN UPPER MICHIGAN

CITY           SKY/WX    TMP DP  RH WIND       PRES   REMARKS
KINROSS        CLOUDY    54  54 100 E12       29.97F
MACKINAC ISLAN MIX PCPN  47  47 100 E12G18    29.95F
NEWBERRY       LGT RAIN  53  53  99 E6        29.95S
S. S. MARIE    LGT RAIN  54  52  93 E5        29.98F FOG
MUNISING         N/A     54  52  93 CALM      29.90F
$$
MIZ004>006-011>014-085-251000-
CENTRAL UPPER MICHIGAN

CITY           SKY/WX    TMP DP  RH WIND       PRES   REMARKS
MANISTIQUE     LGT RAIN  54  53  96 E8        29.90F
ESCANABA       CLOUDY    55  52  88 E10G16    29.87F
MENOMINEE      CLOUDY    54  50  87 E8        29.83F
SAWYER-GWINN   RAIN      55  53  94 E7        29.89F
$$
MIZ001>003-009>011-084-251000-
WESTERN UPPER MICHIGAN

CITY           SKY/WX    TMP DP  RH WIND       PRES   REMARKS
IRON MOUNTAIN  RAIN      56  54  93 E5        29.85F FOG
HOUGHTON       LGT RAIN  56  54  93 NE5       29.87F
COPPER HARBOR    N/A     52  44  74 CALM      29.90S
IRONWOOD       CLOUDY    57  55  94 E8        29.79F
$$

ABBREVIATIONS USED IN REMARKS
   TC - TEMPERATURE IN CELSIUS
  WCI - WIND CHILL INDEX
   HX - HEAT INDEX
  VSB - VISIBILITY



USA.gov is the U.S. government's official web portal to all federal, state and local government web resources and services.